Location: Krakow
(50.0830°N, 19.9170°E)
Time: 09:35:18
(UTC+01:00)

Transit 2A - Pass Details

Date: 15 February 2023
Orbit: 591 x 964 km, 66.7° (Epoch: 21 March)

Event Time Altitude Azimuth Distance (km) Brightness Sun altitude
Rises 19:09:19 0° 314° (NW) 3,387 10.2 -21.6°
Reaches altitude 10° 19:12:34 10° 334° (NNW) 2,522 9.1 -22.1°
Maximum altitude 19:16:30 18° 16° (NNE) 2,075 8.1 -22.7°
Enters shadow 19:17:54 17° 33° (NNE) 2,163 8.1 -23.0°
Drops below altitude 10° 19:20:37 10° 58° (ENE) 2,651 - -23.4°
Sets 19:24:09 0° 76° (ENE) 3,630 - -23.9°
